JTC501 KSTP-KSGF

Flight info

Callsign JTC501
Flight time N/A
Altitude 36000
Route RST1 ALO
Aircraft FA50/M-SDFGHIM1RWXY/H

Departure

Time 2026-05-05 12:56
Airport Saint Paul Downtown Holman Field (KSTP)

Arrival

Time N/A
Airport Springfield Branson National Airport (KSGF)
Time Latitude Longitude Altitude Speed Heading
2026-05-05 12:41 44.93290 -93.06515 713 ft 0 kts 91°
2026-05-05 12:51 44.93289 -93.06464 709 ft 8 kts 91°
2026-05-05 12:52 44.93294 -93.06374 708 ft 10 kts 85°
2026-05-05 12:52 44.93248 -93.06328 710 ft 9 kts 152°
2026-05-05 12:52 44.93192 -93.06277 710 ft 10 kts 147°
2026-05-05 12:52 44.93133 -93.06219 711 ft 8 kts 134°
2026-05-05 12:53 44.93148 -93.06146 710 ft 10 kts 57°
2026-05-05 12:53 44.93164 -93.06070 712 ft 7 kts 130°
2026-05-05 12:53 44.93120 -93.06023 711 ft 9 kts 146°
2026-05-05 12:53 44.93055 -93.05963 705 ft 13 kts 145°
2026-05-05 12:54 44.92876 -93.05795 698 ft 18 kts 147°
2026-05-05 12:54 44.92768 -93.05691 702 ft 19 kts 146°
2026-05-05 12:54 44.92659 -93.05587 707 ft 19 kts 146°
2026-05-05 12:55 44.92592 -93.05510 713 ft 8 kts 96°
2026-05-05 12:55 44.92621 -93.05436 710 ft 10 kts 57°
2026-05-05 12:55 44.92661 -93.05405 708 ft 6 kts 324°
2026-05-05 12:55 44.92688 -93.05431 706 ft 24 kts 326°
2026-05-05 12:56 44.93021 -93.05745 703 ft 89 kts 326°
2026-05-05 12:56 44.93662 -93.06352 869 ft 124 kts 326°
2026-05-05 12:56 44.94437 -93.07067 1337 ft 146 kts 326°
2026-05-05 12:56 44.95382 -93.07929 1885 ft 170 kts 328°
2026-05-05 12:57 44.96350 -93.08826 2957 ft 167 kts 321°
2026-05-05 12:57 44.96920 -93.10266 3860 ft 180 kts 282°
2026-05-05 12:57 44.96616 -93.12065 4615 ft 206 kts 242°
2026-05-05 12:57 44.95456 -93.13359 5539 ft 222 kts 207°
2026-05-05 12:58 44.93905 -93.13807 6343 ft 240 kts 191°
2026-05-05 12:58 44.92107 -93.14071 6410 ft 279 kts 191°
2026-05-05 12:58 44.90168 -93.14377 6997 ft 286 kts 191°
2026-05-05 12:58 44.88203 -93.14660 7957 ft 284 kts 191°
2026-05-05 12:59 44.86215 -93.14935 8701 ft 289 kts 191°
2026-05-05 12:59 44.84206 -93.15218 9498 ft 291 kts 192°
2026-05-05 12:59 44.82177 -93.15508 10201 ft 295 kts 192°
2026-05-05 13:00 44.77932 -93.16112 11375 ft 309 kts 192°
2026-05-05 13:00 44.75782 -93.16410 12101 ft 312 kts 193°
2026-05-05 13:01 44.69224 -93.17343 14173 ft 320 kts 193°
2026-05-05 13:01 44.67005 -93.17654 14801 ft 321 kts 193°
2026-05-05 13:01 44.64765 -93.17940 15426 ft 327 kts 190°
2026-05-05 13:01 44.62463 -93.17549 16042 ft 343 kts 171°
2026-05-05 13:02 44.60200 -93.16363 16646 ft 352 kts 162°
2026-05-05 13:02 44.58004 -93.14765 17261 ft 358 kts 157°
2026-05-05 13:02 44.55821 -93.13053 17789 ft 361 kts 159°
2026-05-05 13:02 44.53566 -93.11476 18315 ft 363 kts 163°
2026-05-05 13:03 44.51274 -93.09966 18790 ft 366 kts 163°
2026-05-05 13:03 44.49747 -93.08919 19094 ft 370 kts 162°
2026-05-05 13:03 44.47438 -93.07273 19545 ft 375 kts 162°
2026-05-05 13:03 44.45102 -93.05618 19992 ft 378 kts 163°
2026-05-05 13:04 44.42729 -93.03983 20440 ft 381 kts 165°
2026-05-05 13:04 44.40338 -93.02335 20892 ft 385 kts 165°
2026-05-05 13:04 44.37923 -93.00651 21282 ft 389 kts 166°
2026-05-05 13:04 44.35488 -92.98953 21705 ft 393 kts 166°
2026-05-05 13:05 44.33030 -92.97249 22133 ft 396 kts 167°
2026-05-05 13:05 44.30551 -92.95537 22547 ft 400 kts 167°
2026-05-05 13:05 44.28047 -92.93803 22941 ft 403 kts 167°
2026-05-05 13:05 44.25528 -92.92058 23359 ft 406 kts 167°
2026-05-05 13:06 44.22988 -92.90303 23719 ft 409 kts 168°
2026-05-05 13:06 44.20430 -92.88536 24091 ft 411 kts 168°
2026-05-05 13:06 44.17867 -92.86765 24431 ft 412 kts 168°
2026-05-05 13:06 44.15300 -92.84993 24855 ft 412 kts 168°
2026-05-05 13:07 44.12727 -92.83226 25203 ft 414 kts 168°
2026-05-05 13:07 44.10140 -92.81450 25564 ft 416 kts 168°
2026-05-05 13:07 44.07542 -92.79663 25921 ft 417 kts 168°
2026-05-05 13:07 44.04965 -92.77893 26196 ft 419 kts 168°
2026-05-05 13:08 44.02338 -92.76096 26461 ft 421 kts 168°
2026-05-05 13:08 43.99702 -92.74292 26748 ft 423 kts 168°
2026-05-05 13:08 43.97060 -92.72482 26989 ft 423 kts 168°
2026-05-05 13:08 43.94416 -92.70675 27263 ft 425 kts 168°
2026-05-05 13:09 43.91760 -92.68866 27515 ft 426 kts 168°
2026-05-05 13:09 43.89095 -92.67049 27786 ft 428 kts 168°
2026-05-05 13:09 43.86417 -92.65222 28069 ft 429 kts 168°
2026-05-05 13:09 43.83735 -92.63397 28326 ft 430 kts 168°
2026-05-05 13:10 43.81039 -92.61567 28573 ft 432 kts 168°
2026-05-05 13:10 43.78312 -92.59982 28824 ft 414 kts 178°
2026-05-05 13:10 43.75555 -92.59144 29132 ft 400 kts 186°
2026-05-05 13:10 43.72813 -92.58677 29344 ft 394 kts 190°
2026-05-05 13:11 43.70085 -92.58382 29592 ft 395 kts 190°
2026-05-05 13:11 43.67334 -92.57967 29832 ft 401 kts 188°
2026-05-05 13:11 43.64556 -92.57432 30051 ft 403 kts 187°
2026-05-05 13:11 43.61779 -92.56943 30252 ft 402 kts 188°
2026-05-05 13:12 43.59000 -92.56525 30446 ft 400 kts 188°
2026-05-05 13:12 43.56245 -92.56092 30820 ft 397 kts 188°
2026-05-05 13:12 43.53528 -92.55637 30973 ft 400 kts 188°
2026-05-05 13:12 43.50760 -92.55177 31154 ft 402 kts 188°
2026-05-05 13:13 43.47980 -92.54726 31355 ft 402 kts 188°
2026-05-05 13:13 43.45196 -92.54276 31537 ft 404 kts 188°
2026-05-05 13:13 43.42402 -92.53821 31725 ft 405 kts 188°
2026-05-05 13:13 43.39595 -92.53361 31871 ft 406 kts 187°
2026-05-05 13:14 43.36800 -92.52904 32194 ft 404 kts 187°
2026-05-05 13:14 43.34011 -92.52451 32479 ft 403 kts 187°
2026-05-05 13:14 43.31230 -92.52003 32724 ft 403 kts 187°
2026-05-05 13:14 43.28444 -92.51551 32974 ft 403 kts 187°
2026-05-05 13:15 43.25661 -92.51099 33250 ft 402 kts 188°
2026-05-05 13:15 43.22887 -92.50649 33520 ft 402 kts 188°
2026-05-05 13:15 43.20114 -92.50202 33759 ft 401 kts 188°
2026-05-05 13:15 43.17343 -92.49754 34002 ft 401 kts 187°
2026-05-05 13:16 43.14574 -92.49307 34210 ft 401 kts 187°
2026-05-05 13:16 43.11793 -92.48861 34389 ft 402 kts 187°
2026-05-05 13:16 43.09009 -92.48412 34567 ft 403 kts 187°
2026-05-05 13:16 43.06218 -92.47960 34815 ft 401 kts 187°
2026-05-05 13:17 43.03440 -92.47512 34925 ft 405 kts 187°
2026-05-05 13:17 43.00623 -92.47072 34924 ft 411 kts 187°
2026-05-05 13:17 42.94881 -92.46143 34919 ft 420 kts 186°
2026-05-05 13:18 42.89049 -92.45213 34901 ft 429 kts 186°
2026-05-05 13:18 42.83064 -92.44254 34914 ft 437 kts 186°
2026-05-05 13:19 42.76965 -92.43280 34925 ft 444 kts 186°
2026-05-05 13:19 42.70790 -92.42298 34935 ft 450 kts 185°
2026-05-05 13:20 42.64535 -92.41303 34945 ft 455 kts 185°
2026-05-05 13:20 42.58222 -92.40305 34919 ft 457 kts 186°
2026-05-05 13:21 42.55172 -92.40179 34938 ft 425 kts 197°
2026-05-05 13:21 42.52288 -92.40698 34941 ft 415 kts 202°
2026-05-05 13:21 42.46711 -92.42386 34942 ft 411 kts 204°
2026-05-05 13:22 42.41048 -92.43865 34936 ft 415 kts 202°
2026-05-05 13:22 42.35407 -92.45424 34920 ft 414 kts 204°
2026-05-05 13:23 42.29713 -92.46971 34923 ft 419 kts 202°
2026-05-05 13:23 42.24005 -92.48514 34909 ft 417 kts 203°
2026-05-05 13:24 42.18316 -92.50061 34908 ft 416 kts 203°
2026-05-05 13:24 42.12630 -92.51597 34910 ft 419 kts 203°
2026-05-05 13:25 42.06917 -92.53142 34920 ft 424 kts 203°
2026-05-05 13:25 42.01144 -92.54691 34921 ft 422 kts 203°
2026-05-05 13:26 41.95405 -92.56239 34884 ft 420 kts 203°
2026-05-05 13:26 41.89672 -92.57779 34928 ft 422 kts 203°
2026-05-05 13:27 41.83893 -92.59326 34931 ft 424 kts 203°
2026-05-05 13:27 41.78112 -92.60870 34936 ft 423 kts 203°
2026-05-05 13:28 41.72355 -92.62408 34938 ft 421 kts 204°
2026-05-05 13:28 41.66612 -92.63941 34937 ft 422 kts 204°
2026-05-05 13:29 41.60845 -92.65474 34935 ft 423 kts 204°
2026-05-05 13:29 41.55076 -92.67005 34933 ft 422 kts 204°
2026-05-05 13:30 41.49321 -92.68529 34931 ft 421 kts 204°
2026-05-05 13:30 41.43570 -92.70054 34925 ft 421 kts 204°
2026-05-05 13:31 41.37819 -92.71571 34926 ft 422 kts 204°
2026-05-05 13:31 41.32066 -92.73088 34927 ft 422 kts 204°
2026-05-05 13:32 41.26308 -92.74603 34929 ft 423 kts 204°
2026-05-05 13:32 41.20529 -92.76122 34927 ft 424 kts 204°
2026-05-05 13:33 41.14776 -92.77628 34933 ft 423 kts 204°
2026-05-05 13:33 41.09003 -92.79140 34895 ft 422 kts 204°
2026-05-05 13:34 41.03218 -92.80654 34928 ft 425 kts 204°
2026-05-05 13:34 40.97400 -92.82169 34936 ft 427 kts 204°
2026-05-05 13:35 40.91580 -92.83682 34939 ft 425 kts 204°
2026-05-05 13:35 40.85787 -92.85189 34937 ft 423 kts 204°
2026-05-05 13:36 40.79989 -92.86695 34940 ft 426 kts 204°
2026-05-05 13:36 40.74168 -92.88200 34919 ft 427 kts 204°
2026-05-05 13:37 40.68352 -92.89703 34919 ft 426 kts 204°
2026-05-05 13:37 40.62539 -92.91203 34919 ft 425 kts 204°
2026-05-05 13:38 40.56729 -92.92698 34921 ft 425 kts 204°
2026-05-05 13:38 40.50920 -92.94194 34926 ft 425 kts 204°
2026-05-05 13:39 40.45151 -92.95673 34932 ft 425 kts 204°
2026-05-05 13:39 40.39350 -92.97158 34935 ft 424 kts 205°
2026-05-05 13:40 40.33543 -92.98646 34940 ft 426 kts 205°
2026-05-05 13:40 40.27728 -93.00129 34940 ft 426 kts 205°
2026-05-05 13:41 40.21906 -93.01612 34936 ft 426 kts 205°
2026-05-05 13:41 40.16105 -93.03087 34935 ft 424 kts 205°
2026-05-05 13:42 40.10317 -93.04560 34940 ft 423 kts 205°
2026-05-05 13:42 40.04532 -93.06023 34935 ft 422 kts 206°
2026-05-05 13:43 39.98774 -93.07482 34899 ft 421 kts 206°
2026-05-05 13:43 39.93070 -93.08924 34932 ft 420 kts 206°
2026-05-05 13:44 39.87320 -93.10374 34930 ft 421 kts 206°
2026-05-05 13:44 39.81569 -93.11822 34929 ft 421 kts 206°
2026-05-05 13:45 39.75807 -93.13269 34880 ft 421 kts 206°
2026-05-05 13:45 39.70057 -93.14716 34920 ft 422 kts 205°
2026-05-05 13:46 39.64277 -93.16160 34921 ft 423 kts 205°
2026-05-05 13:46 39.58504 -93.17604 34921 ft 422 kts 205°
2026-05-05 13:47 39.52744 -93.19043 34865 ft 421 kts 205°
2026-05-05 13:47 39.46980 -93.20481 34867 ft 423 kts 205°
2026-05-05 13:48 39.41191 -93.21920 34874 ft 424 kts 205°
2026-05-05 13:48 39.35383 -93.23363 34874 ft 425 kts 205°
2026-05-05 13:49 39.30541 -93.24565 34833 ft 427 kts 205°
2026-05-05 13:49 39.24700 -93.26009 34834 ft 428 kts 204°
2026-05-05 13:50 39.18831 -93.27462 34836 ft 430 kts 204°
2026-05-05 13:50 39.12955 -93.28910 34833 ft 430 kts 204°
2026-05-05 13:51 39.07066 -93.30362 34799 ft 431 kts 204°
2026-05-05 13:51 39.01172 -93.31812 34798 ft 432 kts 204°
2026-05-05 13:52 38.95262 -93.33262 34797 ft 433 kts 204°
2026-05-05 13:52 38.89346 -93.34712 34787 ft 433 kts 204°
2026-05-05 13:53 38.83417 -93.36163 34727 ft 434 kts 204°
2026-05-05 13:53 38.77484 -93.37613 34728 ft 435 kts 204°
2026-05-05 13:54 38.71571 -93.39054 34726 ft 435 kts 204°
2026-05-05 13:54 38.65610 -93.40507 34724 ft 436 kts 204°